CUSAT 2 & FALCON 9 R/B (39271 NORAD) Tracking and Keplerian Element Data

This shows tracking and keplerian element data for the satellite.

Feedback or suggestion? Click here.




ElementValue
Catalog39271
NameCUSAT 2 & FALCON 9 R/B
Epoch Orbit24953
Epoch Day198.71727794
Epoch Year2018
RAAN297.1407
Inclination80.9681
Eccentricity0.0614676
Argument of Perigee107.8733
Mean Anonmoly259.0451
Mean Motion14.41923504
Decay Rate6.809E-05
L11 39271U 13055G 18198.71727794 .00006809 00000-0 16809-3 0 9997
L22 39271 80.9681 297.1407 0614676 107.8733 259.0451 14.41923504249537

Live tracking and technical data element details for CUSAT 2 & FALCON 9 R/B (NORAD 39271). CUSAT 2 & FALCON 9 R/B can be tracked NOW for your location showing map with azimuth and elevation plus other details from your city location.

Track the satellite on the map from your city or location and see movement details for azimuth, elevation, latitude, longitude, range, height, and movement on the map or in text.







IsCatalogInMostPopularTable: catalog: 39271, numindb: 114
Update: records affected: 1



GetName: 39271 CUSAT 2 & FALCON 9 R/B

Hit Count: updated at: Thu, 19 Jul 2018 21:28:58 GMT